[[{"header":{"parameterUnit":"m.s-1","parameterCategory":2,"la1":30.2991,"la2":30.254,"lo1":-89.0895,"lo2":-89.0444,"dy":0.0017,"dx":0.0017,"nx":28,"ny":28,"refTime":"2025-08-05T21:00:00:Z","depth":"0","parameterNumber":2,"parameterNumberName":"U-component_of_CURRENTS"},"data":[0,0,0,0,0,0,0,0,0,0,0,0,0,0,0,0,0,0,0,0,0,0,0,0,0,0,0,0,0,0,0,0,0,0,0,0,0,0,0,0,0,0,0,0,0,0,0,0,0,0,0,0,0,0,0,0,0,0,0.3573,0.3574,0,0.3669,0.3669,0.367,0.3674,0.3673,0.3672,0.3671,0.3685,0.3687,0.3688,0,0,0,0,0,0,0,0,0,0,0,0,0,0.3447,0.3448,0.3573,0.3574,0.3576,0.3668,0.3669,0.367,0.3674,0.3673,0.3672,0.3671,0.3685,0.3686,0.3688,0,0,0,0,0,0,0,0,0,0,0,0,0,0.3515,0.3449,0.3572,0.3591,0.3593,0.3668,0.3669,0.3671,0.3674,0.3673,0.3671,0.367,0.3685,0.3686,0.3688,0.3726,0,0,0.3694,0.3694,0,0,0,0,0,0,0,0,0.3511,0.3519,0.3586,0.359,0.3593,0.366,0.3631,0.3686,0.3674,0.364,0.3671,0.3669,0.3672,0.3675,0.3693,0.3726,0.3727,0.3694,0.3695,0.3696,0.3696,0,0,0,0,0,0,0,0.3506,0.3515,0.3607,0.3588,0.3592,0.3613,0.362,0.3642,0.3659,0.3643,0.3644,0.366,0.3673,0.3691,0.3693,0.3727,0.3694,0.3695,0.3696,0.3697,0.3822,0.3824,0,0,0,0,0,0,0.3499,0.3511,0.3604,0.3611,0.3551,0.3616,0.3624,0.3638,0.366,0.3664,0.3661,0.366,0.3689,0.3691,0.3694,0.3783,0.3696,0.3697,0.3698,0.382,0.3823,0.3825,0,0,0,0,0,0,0.3496,0.3507,0.3601,0.3565,0.3579,0.362,0.3635,0.364,0.3665,0.3676,0.3677,0.368,0.3688,0.3691,0.3737,0.3782,0.3698,0.37,0.3817,0.3821,0.3824,0.3934,0,0,0,0,0,0,0.3492,0.3505,0.3513,0.3565,0.3581,0.3652,0.3636,0.3643,0.3677,0.3677,0.3693,0.3692,0.3687,0.3735,0.3739,0.3783,0.3701,0.3815,0.3819,0.3823,0.3928,0.3941,0.3952,0,0,0,0,0,0.3487,0.3506,0.3512,0.3524,0.359,0.3654,0.3665,0.3687,0.368,0.3701,0.3721,0.3692,0.3764,0.3739,0.3743,0.3788,0.3813,0.3818,0.3823,0.3922,0.3938,0.3952,0,0,0,0,0,0,0.3456,0.351,0.3518,0.3551,0.3602,0.3656,0.3679,0.3697,0.3731,0.3727,0.3728,0.3732,0.3791,0.3775,0.3747,0.3836,0.3781,0.3787,0.3855,0.387,0.3882,0.3886,0.3703,0,0,0,0,0,0.3454,0.348,0.3538,0.3566,0.359,0.3637,0.3665,0.3685,0.3724,0.3738,0.3753,0.3773,0.3817,0.3829,0.3855,0.3905,0.3922,0.3933,0.3946,0.3956,0.3963,0.4037,0.4057,0.3842,0.3842,0.3842,0,0,0.345,0.3484,0.3499,0.3562,0.3598,0.365,0.365,0.37,0.3751,0.3734,0.3797,0.382,0.3842,0.3906,0.3928,0.3895,0.4034,0.3962,0.3971,0.3972,0.4045,0.4066,0.4085,0.3845,0.3845,0.3844,0,0,0.3462,0.3487,0.3514,0.3561,0.3624,0.3663,0.368,0.3743,0.3775,0.3843,0.3856,0.3909,0.3951,0.3992,0.4015,0.4108,0.4102,0.4109,0.417,0.4244,0.4262,0.4279,0.4359,0.4381,0.4108,0.4108,0.4108,0,0.3454,0.3501,0.3535,0.3581,0.3627,0.367,0.3723,0.3774,0.3846,0.3884,0.3868,0.3983,0.3998,0.4103,0.4139,0.4138,0.4178,0.4114,0.4261,0.4277,0.4292,0.437,0.4393,0.4114,0.4113,0.4113,0.4112,0,0.349,0.3535,0.356,0.3632,0.3684,0.3739,0.3814,0.3869,0.3908,0.3954,0.4057,0.4101,0.416,0.4187,0.4195,0.4317,0.4314,0.4276,0.4225,0.4321,0.4397,0.4419,0.4122,0.412,0.4119,0.4117,0,0,0.3457,0.3564,0.3572,0.362,0.3718,0.3767,0.386,0.396,0.4035,0.409,0.4194,0.4275,0.4287,0.4316,0.4342,0.4414,0.4569,0.4395,0.4397,0.4478,0.4752,0.4716,0.4736,0.4561,0.4565,0.4568,0.4774,0,0.3479,0.3566,0.3619,0.3715,0.3774,0.385,0.3941,0.4032,0.4114,0.4223,0.4283,0.4388,0.4341,0.4402,0.4459,0.4553,0.4628,0.4517,0.4644,0.4648,0.4606,0.4761,0.4548,0.4711,0.4796,0.4799,0.4802,0,0.3502,0.3561,0.3651,0.3778,0.381,0.387,0.4023,0.4115,0.4267,0.4335,0.4423,0.4481,0.4611,0.4558,0.4727,0.4661,0.4713,0.4769,0.4777,0.4715,0.4652,0.4622,0.4748,0.4609,0.4836,0.4833,0.4831,0,0.3476,0.3589,0.3661,0.3703,0.3846,0.3901,0.3984,0.4135,0.4234,0.442,0.4508,0.4633,0.4719,0.4806,0.4895,0.4834,0.5089,0.5007,0.5023,0.502,0.4849,0.4825,0.4849,0.513,0.513,0.5129,0.5128,0,0.3497,0.3554,0.3648,0.3692,0.3791,0.389,0.4019,0.4132,0.43,0.4424,0.4551,0.4673,0.4786,0.4926,0.4979,0.5089,0.5146,0.5079,0.5086,0.4883,0.4861,0.4734,0.4673,0.5137,0.5135,0.5133,0.5132,0,0.3482,0.3542,0.363,0.375,0.3786,0.3859,0.402,0.4126,0.4285,0.446,0.4531,0.4735,0.4925,0.5049,0.5231,0.5194,0.5177,0.5334,0.5099,0.5074,0.49,0.4853,0.4763,0.462,0.538,0.538,0.5381,0,0.3492,0.3531,0.3645,0.3704,0.3759,0.3865,0.3955,0.4107,0.4218,0.4487,0.4572,0.4815,0.4967,0.5233,0.5266,0.5395,0.5221,0.5243,0.5068,0.4909,0.4863,0.4675,0.4546,0.4902,0.4899,0.4896,0.4893,0,0.3526,0.3555,0.364,0.3734,0.3814,0.3891,0.4012,0.4076,0.4269,0.4416,0.4616,0.4769,0.5007,0.5048,0.5217,0.5244,0.4975,0.5186,0.5074,0.4556,0.4299,0.4155,0.4764,0.4868,0.487,0.4872,0.4874,0.4875,0.3564,0.3615,0.3716,0.3795,0.3874,0.3913,0.3923,0.4049,0.4178,0.4328,0.4537,0.4666,0.4802,0.5002,0.5012,0.485,0.4828,0.4672,0.4658,0.4504,0.4261,0.4833,0.4901,0.4904,0.4906,0.4908,0.491,0,0.3632,0.3687,0.3774,0.3849,0.3882,0.3911,0.3966,0.3928,0.3994,0.4172,0.4311,0.4417,0.4484,0.4549,0.4502,0.4337,0.4114,0.4211,0.3871,0.379,0.4353,0.4223,0.408,0.408,0.408,0.408,0.408,0.408,0.3687,0.3772,0.3787,0.3831,0.3852,0.3798,0.3771,0.3717,0.3763,0.3779,0.3803,0.3906,0.4119,0.4215,0.4052,0.3949,0.3625,0.3473,0.3483,0.3856,0.3895,0.3932,0.3794,0.3563,0.3562,0.2713,0.2707,0.2702]},{"header":{"parameterUnit":"m.s-1","parameterCategory":2,"la1":30.2991,"la2":30.254,"lo1":-89.0895,"lo2":-89.0444,"dy":0.0017,"dx":0.0017,"nx":28,"ny":28,"refTime":"2025-08-05T21:00:00:Z","depth":"0","parameterNumber":3,"parameterNumberName":"V-component_of_CURRENTS"},"data":[0,0,0,0,0,0,0,0,0,0,0,0,0,0,0,0,0,0,0,0,0,0,0,0,0,0,0,0,0,0,0,0,0,0,0,0,0,0,0,0,0,0,0,0,0,0,0,0,0,0,0,0,0,0,0,0,0,0,0.0213,0.0213,0,0.0137,0.0136,0.0135,0.0073,0.0073,0.0072,0.0072,-0.0043,-0.0046,-0.0049,0,0,0,0,0,0,0,0,0,0,0,0,0,0.0242,0.0242,0.0213,0.0213,0.0212,0.0137,0.0136,0.0135,0.0073,0.0072,0.0072,0.0072,-0.0043,-0.0046,-0.0049,0,0,0,0,0,0,0,0,0,0,0,0,0,0.0202,0.0242,0.0213,0.0174,0.017,0.0137,0.0136,0.0134,0.0073,0.0072,0.0072,0.0071,-0.0041,-0.0045,-0.0049,-0.0062,0,0,-0.0062,-0.0063,0,0,0,0,0,0,0,0,0.0204,0.02,0.0181,0.0177,0.0172,0.0116,0.0104,0.0068,0.0073,0.0107,0.0072,0.0071,0.0009,0.0,-0.0016,-0.0068,-0.0073,-0.0062,-0.0064,-0.0066,-0.0067,0,0,0,0,0,0,0,0.0207,0.0203,0.018,0.018,0.0175,0.0138,0.0132,0.0096,0.0059,0.0104,0.01,0.0096,0.0005,-0.0012,-0.0019,-0.0074,-0.0062,-0.0066,-0.0068,-0.007,-0.0151,-0.0151,0,0,0,0,0,0,0.0226,0.0206,0.0183,0.0178,0.019,0.0139,0.0132,0.0133,0.006,0.005,0.0097,0.0093,-0.0005,-0.0014,-0.0023,-0.0038,-0.0066,-0.007,-0.0072,-0.0151,-0.0151,-0.0151,0,0,0,0,0,0,0.0227,0.0225,0.0186,0.0192,0.0185,0.014,0.0141,0.0131,0.0118,0.0056,0.0044,0.0093,-0.0005,-0.0018,-0.005,-0.0043,-0.0072,-0.0075,-0.0152,-0.0151,-0.0151,-0.007,0,0,0,0,0,0,0.0228,0.0226,0.0231,0.0194,0.0185,0.0178,0.0141,0.0131,0.0117,0.0112,0.0049,0.0037,-0.0007,-0.0043,-0.0054,-0.0049,-0.0079,-0.0152,-0.0151,-0.0151,-0.0073,-0.0067,-0.0062,0,0,0,0,0,0.0229,0.0246,0.0232,0.0229,0.0195,0.0179,0.0172,0.0135,0.0118,0.0119,0.0074,0.0039,-0.0048,-0.0046,-0.0058,-0.0055,-0.0152,-0.0151,-0.0151,-0.0076,-0.0068,-0.0062,0,0,0,0,0,0,0.0263,0.024,0.0224,0.0233,0.0212,0.017,0.0168,0.0145,0.011,0.0105,0.0043,0.0029,0.0001,-0.0036,-0.0032,-0.0078,-0.0106,-0.0108,-0.0045,-0.0038,-0.0033,-0.0007,-0.0082,0,0,0,0,0,0.0274,0.0277,0.025,0.0255,0.025,0.0211,0.02,0.0179,0.0145,0.0129,0.0085,0.0036,-0.0006,-0.0027,-0.0069,-0.009,-0.0104,-0.0097,-0.0091,-0.0086,-0.0073,-0.0087,-0.0081,-0.0149,-0.0149,-0.0149,0,0,0.0286,0.0276,0.0276,0.0262,0.0242,0.0246,0.0202,0.0197,0.0196,0.0122,0.0107,0.0056,-0.0007,-0.0034,-0.005,-0.0063,-0.0072,-0.0085,-0.008,-0.0071,-0.0086,-0.0079,-0.0073,-0.0148,-0.0148,-0.0148,0,0,0.032,0.0308,0.0323,0.0314,0.0298,0.0276,0.0281,0.0248,0.0229,0.0209,0.0153,0.0112,0.0051,0.0007,-0.0024,-0.001,-0.0041,-0.0027,0.0022,0.0009,0.0015,0.002,0.0028,0.0033,-0.0024,-0.0024,-0.0023,0,0.0337,0.0355,0.0325,0.0341,0.0343,0.0297,0.032,0.0295,0.0254,0.0248,0.0217,0.0134,0.0072,0.0042,0.0034,0.0004,0.0,0.0003,0.0019,0.0023,0.0027,0.0033,0.0038,-0.002,-0.002,-0.002,-0.0021,0,0.0382,0.0397,0.0409,0.0413,0.0409,0.0423,0.0394,0.0386,0.0357,0.0329,0.0298,0.0218,0.017,0.0137,0.0082,0.0075,0.0066,0.003,0.0008,0.0039,0.0043,0.0047,-0.0014,-0.0015,-0.0017,-0.0018,0,0,0.042,0.0439,0.0442,0.0464,0.0454,0.046,0.0464,0.0458,0.0475,0.0415,0.0439,0.0328,0.0286,0.0248,0.0179,0.0153,0.0161,0.0105,0.0102,0.0125,0.0155,0.0148,0.0151,0.0131,0.0131,0.0132,0.0154,0,0.0466,0.0524,0.0511,0.056,0.0592,0.0559,0.0573,0.0559,0.0535,0.0546,0.0464,0.0455,0.0329,0.0323,0.0267,0.0203,0.0171,0.016,0.011,0.0109,0.0109,0.0154,0.0124,0.0141,0.0157,0.0157,0.0158,0,0.0518,0.0552,0.0615,0.0656,0.0666,0.0684,0.071,0.072,0.0709,0.0697,0.0658,0.0605,0.0555,0.0456,0.0346,0.035,0.0251,0.019,0.0188,0.0157,0.0108,0.0106,0.0146,-0.0083,0.0162,0.0162,0.0161,0,0.0576,0.0625,0.0683,0.0695,0.0727,0.0751,0.0771,0.077,0.0815,0.0815,0.0867,0.0762,0.0767,0.0626,0.0469,0.0417,0.0377,0.029,0.0189,0.0189,0.014,0.0135,-0.0038,0.0208,0.0208,0.0208,0.0208,0,0.0642,0.0687,0.0719,0.0753,0.0838,0.0829,0.0918,0.0919,0.0971,0.1072,0.0961,0.1038,0.081,0.0752,0.0562,0.0415,0.0444,0.0219,0.0197,0.0169,0.0165,-0.0056,-0.0184,0.0208,0.0208,0.0208,0.0208,0,0.0706,0.072,0.0799,0.0849,0.0872,0.0941,0.1047,0.1117,0.1147,0.1291,0.1318,0.1273,0.1203,0.098,0.0788,0.0571,0.0286,0.0341,0.0336,0.0311,-0.0029,-0.015,-0.0318,-0.0403,0.023,0.023,0.023,0,0.0749,0.0793,0.088,0.095,0.0982,0.1083,0.1163,0.1207,0.1307,0.1459,0.1555,0.1534,0.1561,0.128,0.0893,0.0587,0.0336,0.0324,0.0188,-0.0032,-0.0184,-0.0277,-0.0343,0.0161,0.0161,0.016,0.016,0,0.0843,0.0868,0.0942,0.1079,0.1175,0.1292,0.1418,0.1528,0.1625,0.177,0.196,0.2011,0.174,0.142,0.0962,0.071,0.0154,0.0304,0.0068,-0.0251,-0.0355,-0.0451,0.0144,0.0156,0.0156,0.0157,0.0157,0.0157,0.0923,0.1001,0.1099,0.1228,0.1348,0.1502,0.1626,0.1786,0.1991,0.2239,0.2262,0.2386,0.1852,0.1232,0.0877,0.0128,0.0141,-0.0131,-0.0253,-0.0321,-0.0435,0.0168,0.0154,0.0155,0.0155,0.0155,0.0156,0,0.1024,0.1109,0.1244,0.1404,0.1551,0.1581,0.1796,0.1941,0.2213,0.2445,0.2625,0.2413,0.1794,0.1117,0.0123,-0.0355,-0.0547,-0.0625,-0.0802,-0.0838,-0.0312,-0.0351,-0.0464,-0.0464,-0.0464,-0.0464,-0.0463,-0.0463,0.109,0.1226,0.1288,0.1539,0.1659,0.1856,0.1984,0.2213,0.2407,0.2684,0.2748,0.2755,0.2151,0.0473,-0.0649,-0.0894,-0.1237,-0.1315,-0.1439,-0.1144,-0.1109,-0.1075,-0.1144,-0.1421,-0.1422,-0.1926,-0.1932,-0.1936]}],[{"header":{"parameterUnit":"m.s-1","parameterCategory":2,"la1":30.2991,"la2":30.254,"lo1":-89.0895,"lo2":-89.0444,"dy":0.0017,"dx":0.0017,"nx":28,"ny":28,"refTime":"2025-08-05T21:00:00:Z","depth":"2","parameterNumber":2,"parameterNumberName":"U-component_of_CURRENTS"},"data":[0,0,0,0,0,0,0,0,0,0,0,0,0,0,0,0,0,0,0,0,0,0,0,0,0,0,0,0,0,0,0,0,0,0,0,0,0,0,0,0,0,0,0,0,0,0,0,0,0,0,0,0,0,0,0,0,0,0,0.2856,0.2856,0,0.2905,0.2906,0.2906,0.2924,0.2924,0.2924,0.2923,0.2963,0.2965,0.2966,0,0,0,0,0,0,0,0,0,0,0,0,0,0.2765,0.2767,0.2856,0.2856,0.2857,0.2905,0.2906,0.2906,0.2924,0.2924,0.2923,0.2923,0.2963,0.2964,0.2966,0,0,0,0,0,0,0,0,0,0,0,0,0,0.2808,0.2767,0.2856,0.2872,0.2874,0.2905,0.2906,0.2906,0.2924,0.2924,0.2923,0.2923,0.2963,0.2964,0.2966,0.2981,0,0,0.2971,0.2972,0,0,0,0,0,0,0,0,0.2805,0.2811,0.2869,0.2871,0.2873,0.2909,0.2889,0.2931,0.2924,0.2904,0.2923,0.2923,0.2945,0.2948,0.2957,0.2982,0.2984,0.2972,0.2973,0.2973,0.2974,0,0,0,0,0,0,0,0.2802,0.2809,0.2875,0.287,0.2872,0.2873,0.2879,0.2897,0.2924,0.2906,0.2907,0.2914,0.2946,0.2955,0.2958,0.2985,0.2972,0.2973,0.2974,0.2975,0.3082,0.3083,0,0,0,0,0,0,0.2799,0.2807,0.2873,0.2876,0.2839,0.2875,0.2882,0.2897,0.2924,0.2929,0.2914,0.2915,0.2952,0.2956,0.2959,0.3028,0.2973,0.2975,0.2976,0.308,0.3082,0.3084,0,0,0,0,0,0,0.2797,0.2805,0.2871,0.2842,0.2851,0.2877,0.2894,0.2898,0.2924,0.2931,0.2935,0.2937,0.2952,0.2957,0.3007,0.3027,0.2976,0.2977,0.3078,0.308,0.3083,0.3133,0,0,0,0,0,0,0.2794,0.2804,0.2817,0.2842,0.2852,0.2902,0.2894,0.2899,0.2927,0.2929,0.2952,0.2954,0.2952,0.3004,0.3008,0.3029,0.2979,0.3075,0.3079,0.3082,0.3129,0.3137,0.3143,0,0,0,0,0,0.2791,0.2803,0.2817,0.2825,0.2868,0.2903,0.2909,0.2925,0.2929,0.2947,0.2974,0.2955,0.3028,0.3008,0.3012,0.3033,0.3074,0.3078,0.3082,0.3125,0.3135,0.3143,0,0,0,0,0,0,0.277,0.2807,0.2823,0.2847,0.2881,0.2906,0.2923,0.2938,0.2973,0.2981,0.2984,0.299,0.3042,0.3036,0.3014,0.3075,0.3045,0.305,0.3076,0.3085,0.3093,0.312,0.298,0,0,0,0,0,0.2773,0.2794,0.2832,0.2855,0.2874,0.2904,0.2921,0.294,0.2971,0.2987,0.3008,0.3032,0.3059,0.3072,0.3097,0.3131,0.3166,0.3147,0.3154,0.316,0.3187,0.3269,0.3287,0.3097,0.3097,0.3097,0,0,0.2768,0.2795,0.2805,0.2852,0.2879,0.2914,0.2915,0.2953,0.2988,0.2986,0.3045,0.3066,0.3079,0.3123,0.3143,0.312,0.3232,0.3165,0.317,0.3194,0.3275,0.3294,0.3311,0.31,0.3099,0.3099,0,0,0.2775,0.2801,0.2825,0.2857,0.2908,0.2929,0.2946,0.2994,0.3022,0.3096,0.3091,0.3131,0.3187,0.3186,0.3196,0.326,0.3276,0.3262,0.3313,0.3392,0.3408,0.3423,0.3488,0.3509,0.3256,0.3256,0.3256,0,0.2771,0.281,0.2837,0.2875,0.2907,0.294,0.2981,0.3013,0.3074,0.311,0.3131,0.3228,0.3222,0.3263,0.3283,0.3275,0.333,0.3273,0.3402,0.3418,0.3433,0.3495,0.3517,0.3259,0.3258,0.3258,0.3258,0,0.2802,0.2835,0.2854,0.2914,0.2953,0.2991,0.3044,0.3086,0.3142,0.3188,0.3281,0.3307,0.3363,0.3356,0.3346,0.3424,0.3433,0.3409,0.3379,0.3455,0.3516,0.3538,0.3263,0.3262,0.3261,0.326,0,0,0.2775,0.286,0.2862,0.2895,0.2979,0.3004,0.3077,0.3149,0.3209,0.329,0.3392,0.3427,0.3461,0.3474,0.3455,0.3512,0.364,0.3513,0.3516,0.3577,0.3834,0.3728,0.3741,0.3654,0.3659,0.3662,0.3834,0,0.2792,0.2865,0.2902,0.2958,0.3008,0.3059,0.3131,0.3203,0.329,0.3395,0.3446,0.3542,0.3496,0.3546,0.3594,0.3631,0.3704,0.3597,0.3753,0.3758,0.3654,0.3765,0.3463,0.3583,0.3855,0.3859,0.3862,0,0.2805,0.286,0.2933,0.3009,0.3033,0.3076,0.3192,0.3243,0.3384,0.3486,0.3589,0.3651,0.3729,0.3709,0.3831,0.3776,0.3826,0.3858,0.3864,0.3768,0.3693,0.3553,0.3612,0.3898,0.3896,0.3893,0.389,0,0.2777,0.2859,0.2917,0.2946,0.3055,0.3098,0.3144,0.3281,0.3369,0.3538,0.3666,0.3769,0.3863,0.3937,0.3989,0.3941,0.4155,0.4081,0.4039,0.4031,0.3806,0.377,0.422,0.422,0.4219,0.4219,0.4218,0,0.2773,0.2806,0.2911,0.2932,0.3023,0.3089,0.319,0.3278,0.3456,0.3569,0.3692,0.3824,0.3942,0.4058,0.4076,0.4131,0.4225,0.409,0.4084,0.3811,0.3776,0.4065,0.4045,0.4225,0.4224,0.4223,0.4221,0,0.2734,0.2797,0.2854,0.2963,0.3012,0.3062,0.3215,0.3288,0.3465,0.3628,0.3704,0.3927,0.4051,0.4147,0.429,0.4239,0.4297,0.4301,0.3968,0.3919,0.4098,0.4079,0.4261,0.4259,0.4257,0.4256,0.4255,0,0.2724,0.2771,0.2861,0.2912,0.2963,0.3059,0.3139,0.3299,0.3391,0.3657,0.3736,0.3954,0.4044,0.4216,0.4207,0.425,0.4321,0.3996,0.3825,0.4134,0.4111,0.4094,0.4077,0.3552,0.3545,0.354,0.3535,0,0.273,0.2758,0.2786,0.2889,0.2961,0.3032,0.3145,0.3236,0.3401,0.3544,0.3705,0.38,0.3974,0.3881,0.3975,0.3945,0.3948,0.388,0.4341,0.3571,0.3475,0.3449,0.3454,0.3486,0.3491,0.3494,0.3497,0.3499,0.2714,0.2734,0.2773,0.2836,0.2925,0.2972,0.297,0.3088,0.3187,0.3311,0.3498,0.3526,0.3618,0.357,0.3501,0.3469,0.3706,0.3543,0.3557,0.3578,0.3448,0.3352,0.3317,0.332,0.3324,0.3327,0.3329,0,0.2695,0.2707,0.2745,0.2738,0.2735,0.285,0.2947,0.2881,0.2894,0.3067,0.3135,0.2937,0.2926,0.3028,0.2899,0.2913,0.2855,0.2804,0.2697,0.2751,0.2798,0.2623,0.2276,0.2272,0.2268,0.2265,0,0,0.2697,0.2659,0.263,0.2545,0.256,0.2537,0.2568,0.2502,0.2584,0.2533,0.256,0.2778,0.2944,0.2557,0.253,0.238,0.2537,0.2298,0.3154,0.3083,0.3124,0.3251,0.3047,0,0,0,0,0]},{"header":{"parameterUnit":"m.s-1","parameterCategory":2,"la1":30.2991,"la2":30.254,"lo1":-89.0895,"lo2":-89.0444,"dy":0.0017,"dx":0.0017,"nx":28,"ny":28,"refTime":"2025-08-05T21:00:00:Z","depth":"2","parameterNumber":3,"parameterNumberName":"V-component_of_CURRENTS"},"data":[0,0,0,0,0,0,0,0,0,0,0,0,0,0,0,0,0,0,0,0,0,0,0,0,0,0,0,0,0,0,0,0,0,0,0,0,0,0,0,0,0,0,0,0,0,0,0,0,0,0,0,0,0,0,0,0,0,0,0.0009,0.0009,0,-0.0059,-0.006,-0.0061,-0.0109,-0.011,-0.011,-0.011,-0.0198,-0.02,-0.0202,0,0,0,0,0,0,0,0,0,0,0,0,0,0.0033,0.0033,0.0009,0.0009,0.0008,-0.0059,-0.006,-0.0061,-0.0109,-0.011,-0.011,-0.011,-0.0197,-0.0199,-0.0202,0,0,0,0,0,0,0,0,0,0,0,0,0,-0.0002,0.0033,0.0009,-0.0023,-0.0027,-0.0058,-0.006,-0.0061,-0.0109,-0.011,-0.011,-0.011,-0.0196,-0.0199,-0.0202,-0.0214,0,0,-0.0212,-0.0213,0,0,0,0,0,0,0,0,0.0,-0.0003,-0.0018,-0.0021,-0.0025,-0.0074,-0.0083,-0.0113,-0.0109,-0.008,-0.011,-0.0111,-0.0157,-0.0163,-0.0177,-0.0218,-0.0222,-0.0212,-0.0214,-0.0215,-0.0216,0,0,0,0,0,0,0,0.0003,-0.0001,-0.0019,-0.0018,-0.0023,-0.0056,-0.0061,-0.009,-0.0117,-0.0082,-0.0086,-0.009,-0.0159,-0.0174,-0.018,-0.0223,-0.0212,-0.0215,-0.0217,-0.0218,-0.0282,-0.0282,0,0,0,0,0,0,0.0018,0.0002,-0.0017,-0.0021,-0.0011,-0.0056,-0.0062,-0.006,-0.0116,-0.0125,-0.009,-0.0092,-0.0169,-0.0176,-0.0183,-0.0187,-0.0215,-0.0218,-0.022,-0.0282,-0.0282,-0.0281,0,0,0,0,0,0,0.0019,0.0018,-0.0014,-0.001,-0.0017,-0.0055,-0.0053,-0.0061,-0.0071,-0.0122,-0.0131,-0.0091,-0.0169,-0.0179,-0.0202,-0.0191,-0.022,-0.0223,-0.0282,-0.0282,-0.0282,-0.0202,0,0,0,0,0,0,0.002,0.0019,0.0024,-0.0009,-0.0016,-0.002,-0.0053,-0.0062,-0.0073,-0.0076,-0.0126,-0.0135,-0.017,-0.0197,-0.0205,-0.0196,-0.0225,-0.0282,-0.0282,-0.0282,-0.0205,-0.0199,-0.0194,0,0,0,0,0,0.0022,0.0038,0.0025,0.0023,-0.0006,-0.0019,-0.0025,-0.0056,-0.0072,-0.0069,-0.0106,-0.0133,-0.0201,-0.0199,-0.0209,-0.02,-0.0283,-0.0282,-0.0282,-0.0208,-0.0201,-0.0195,0,0,0,0,0,0,0.0052,0.0033,0.0019,0.0029,0.0011,-0.0026,-0.0026,-0.0048,-0.0075,-0.0078,-0.0129,-0.014,-0.0159,-0.019,-0.0187,-0.0219,-0.0247,-0.0248,-0.0187,-0.0181,-0.0176,-0.0153,-0.0228,0,0,0,0,0,0.0063,0.0067,0.0043,0.005,0.0046,0.0011,0.0001,-0.0016,-0.0045,-0.0057,-0.0093,-0.0132,-0.0165,-0.018,-0.0214,-0.0227,-0.0254,-0.023,-0.0224,-0.0219,-0.0208,-0.024,-0.0236,-0.028,-0.028,-0.028,0,0,0.0074,0.0065,0.0066,0.0056,0.0039,0.0047,0.0004,0.0001,0.0005,-0.0062,-0.0068,-0.0114,-0.0165,-0.0183,-0.0193,-0.0206,-0.0221,-0.0219,-0.0214,-0.0205,-0.024,-0.0235,-0.0231,-0.028,-0.028,-0.028,0,0,0.0107,0.0096,0.0113,0.0108,0.0095,0.0075,0.008,0.0052,0.0037,0.0023,-0.0026,-0.0059,-0.0107,-0.0141,-0.0166,-0.015,-0.0193,-0.0165,-0.0116,-0.0148,-0.0144,-0.0141,-0.0166,-0.0166,-0.016,-0.016,-0.016,0,0.0122,0.0144,0.0116,0.0136,0.014,0.0096,0.0121,0.0102,0.0068,0.0063,0.0034,-0.0037,-0.0086,-0.0105,-0.0109,-0.0136,-0.016,-0.0134,-0.0139,-0.0137,-0.0135,-0.0161,-0.0162,-0.0156,-0.0157,-0.0157,-0.0157,0,0.0172,0.0189,0.0202,0.0213,0.0211,0.0227,0.0202,0.0199,0.0171,0.0145,0.0119,0.0049,0.001,-0.0018,-0.0063,-0.0075,-0.0098,-0.0128,-0.0149,-0.0125,-0.0155,-0.0157,-0.0151,-0.0152,-0.0153,-0.0154,0,0,0.0206,0.0233,0.0238,0.0264,0.0258,0.0267,0.0276,0.0274,0.0291,0.0237,0.0253,0.0166,0.0123,0.0092,0.0031,-0.0006,-0.0028,-0.0059,-0.0063,-0.0073,-0.0092,-0.0135,-0.0142,-0.0059,-0.0059,-0.0059,-0.0115,0,0.0255,0.0319,0.0311,0.0367,0.0399,0.0372,0.0389,0.0379,0.0353,0.0357,0.0281,0.0264,0.0168,0.0154,0.0099,0.0009,-0.0031,-0.001,-0.0123,-0.0126,-0.0159,-0.0146,-0.0117,-0.0167,-0.0118,-0.0118,-0.0119,0,0.0309,0.0347,0.0413,0.046,0.0472,0.0492,0.0519,0.0531,0.0513,0.0496,0.0456,0.0397,0.0335,0.0255,0.0113,0.0131,0.0027,-0.0051,-0.0055,-0.0123,-0.0174,-0.0186,-0.0174,-0.0123,-0.0123,-0.0123,-0.0122,0,0.0359,0.042,0.0478,0.0494,0.0534,0.0558,0.0577,0.0572,0.061,0.0591,0.062,0.0515,0.0496,0.0345,0.0167,0.0143,0.0018,-0.0034,-0.0169,-0.0173,-0.0185,-0.019,-0.0129,-0.0129,-0.0129,-0.0128,-0.0128,0,0.0418,0.0466,0.051,0.0545,0.0626,0.0624,0.0699,0.0701,0.0736,0.0806,0.0701,0.0733,0.0518,0.0417,0.0225,0.0028,0.0059,-0.0154,-0.019,-0.0158,-0.0159,-0.0153,-0.0155,-0.0131,-0.013,-0.013,-0.0129,0,0.0461,0.0489,0.0568,0.0627,0.0652,0.0712,0.0801,0.0859,0.0876,0.0972,0.0983,0.0912,0.0769,0.0544,0.0314,0.0126,-0.0073,-0.0152,-0.0099,-0.0128,-0.0259,-0.0256,-0.0309,-0.0311,-0.0313,-0.0314,-0.0315,0,0.049,0.0534,0.063,0.069,0.0721,0.0809,0.0875,0.0923,0.1003,0.1087,0.1152,0.1057,0.0997,0.064,0.0293,-0.0037,-0.0075,-0.0223,-0.028,-0.0247,-0.0277,-0.0272,-0.0267,-0.0261,-0.0261,-0.0262,-0.0262,0,0.0548,0.0578,0.0646,0.0761,0.0846,0.0959,0.1065,0.1161,0.1242,0.1325,0.1409,0.137,0.1039,0.0705,0.0252,0.0025,-0.0177,-0.0246,-0.0209,-0.0225,-0.0208,-0.0235,-0.0231,-0.0267,-0.0266,-0.0266,-0.0266,-0.0266,0.0587,0.0648,0.0729,0.0839,0.0944,0.109,0.1208,0.1336,0.1484,0.1623,0.1573,0.1527,0.1155,0.0565,0.0181,-0.0217,-0.0216,-0.0357,-0.0353,-0.0348,-0.0339,-0.0326,-0.0404,-0.0404,-0.0405,-0.0405,-0.0405,0,0.0632,0.0699,0.0802,0.0939,0.106,0.111,0.1319,0.1442,0.1632,0.173,0.1769,0.1419,0.1042,0.0633,0.0036,-0.0335,-0.0354,-0.0439,-0.0377,-0.037,-0.0365,-0.0354,-0.0425,-0.0426,-0.0427,-0.0428,0,0,0.0661,0.0751,0.0801,0.0995,0.1105,0.1292,0.1429,0.1613,0.1737,0.1819,0.1801,0.1681,0.1183,0.0751,0.0252,-0.0075,-0.0135,-0.0144,-0.0092,0.0046,0.0057,-0.0288,-0.0261,0,0,0,0,0]}],[{"header":{"parameterUnit":"m.s-1","parameterCategory":2,"la1":30.2991,"la2":30.254,"lo1":-89.0895,"lo2":-89.0444,"dy":0.0017,"dx":0.0017,"nx":28,"ny":28,"refTime":"2025-08-05T21:00:00:Z","depth":"4","parameterNumber":2,"parameterNumberName":"U-component_of_CURRENTS"},"data":[0,0,0,0,0,0,0,0,0,0,0,0,0,0,0,0,0,0,0,0,0,0,0,0,0,0,0,0,0,0,0,0,0,0,0,0,0,0,0,0,0,0,0,0,0,0,0,0,0,0,0,0,0,0,0,0,0,0,0.1672,0.1673,0,0.1713,0.1713,0.1713,0.1758,0.1759,0.1761,0.1762,0.1865,0.1867,0.1869,0,0,0,0,0,0,0,0,0,0,0,0,0,0.1588,0.1589,0.1672,0.1673,0.1674,0.1713,0.1713,0.1713,0.1758,0.176,0.1761,0.1762,0.1865,0.1867,0.1869,0,0,0,0,0,0,0,0,0,0,0,0,0,0.1621,0.159,0.1671,0.1705,0.1709,0.1713,0.1713,0.1713,0.1758,0.176,0.1761,0.1763,0.1864,0.1867,0.1869,0.1849,0,0,0.1877,0.1878,0,0,0,0,0,0,0,0,0.1619,0.1623,0.1699,0.1703,0.1707,0.1738,0.1722,0.1764,0.1757,0.1733,0.1762,0.1764,0.1831,0.1836,0.1831,0.1854,0.1858,0.1877,0.1879,0.188,0.188,0,0,0,0,0,0,0,0.1617,0.1622,0.1682,0.17,0.1705,0.1704,0.171,0.1729,0.1768,0.1735,0.174,0.1754,0.1833,0.1828,0.1834,0.186,0.1877,0.1879,0.1881,0.1882,0.2007,0.2009,0,0,0,0,0,0,0.1624,0.162,0.1681,0.1684,0.1673,0.1705,0.1712,0.1721,0.1767,0.1777,0.1752,0.1756,0.1823,0.1831,0.1838,0.1924,0.188,0.1882,0.1883,0.2006,0.2008,0.201,0,0,0,0,0,0,0.1622,0.1629,0.1679,0.1658,0.1665,0.1705,0.1715,0.1721,0.1763,0.178,0.179,0.1794,0.1825,0.1835,0.1896,0.1925,0.1883,0.1885,0.2003,0.2006,0.2009,0.2029,0,0,0,0,0,0,0.1619,0.1627,0.1651,0.1658,0.1667,0.1713,0.1714,0.1721,0.1769,0.1775,0.1818,0.1827,0.1827,0.1892,0.1898,0.1928,0.1887,0.2001,0.2005,0.2008,0.2026,0.2032,0.2037,0,0,0,0,0,0.1616,0.1633,0.1652,0.1661,0.1693,0.1714,0.1719,0.1748,0.177,0.1791,0.1826,0.1828,0.1919,0.1895,0.1902,0.1933,0.1999,0.2004,0.2008,0.2023,0.203,0.2037,0,0,0,0,0,0,0.161,0.164,0.1661,0.1689,0.1718,0.1725,0.175,0.1772,0.1812,0.1832,0.1847,0.1857,0.1922,0.193,0.1904,0.1982,0.1961,0.1967,0.1971,0.1978,0.1983,0.1989,0.1889,0,0,0,0,0,0.162,0.1645,0.1672,0.17,0.1717,0.1742,0.1763,0.1786,0.1815,0.1836,0.1864,0.1901,0.1934,0.1961,0.1987,0.2027,0.2051,0.2056,0.2061,0.2066,0.2077,0.2145,0.2157,0.2023,0.2023,0.2023,0,0,0.1623,0.1648,0.1662,0.1703,0.1724,0.1745,0.1759,0.1801,0.1826,0.1841,0.1894,0.1926,0.1952,0.1996,0.2026,0.2013,0.2116,0.2071,0.2074,0.2084,0.2151,0.2163,0.2175,0.2026,0.2026,0.2025,0,0,0.163,0.1668,0.1688,0.1712,0.1763,0.1777,0.1802,0.1835,0.1864,0.191,0.1933,0.1982,0.203,0.2047,0.2062,0.2118,0.2145,0.2144,0.2174,0.2239,0.225,0.2261,0.2299,0.2312,0.2144,0.2144,0.2144,0,0.1638,0.1666,0.1698,0.1722,0.1747,0.1797,0.1819,0.1846,0.1899,0.1931,0.1939,0.2029,0.2044,0.2102,0.2122,0.2127,0.2176,0.2139,0.2245,0.2256,0.2266,0.2303,0.2318,0.2146,0.2145,0.2145,0.2145,0,0.1648,0.1682,0.1697,0.1742,0.1772,0.1805,0.1845,0.1895,0.1938,0.1965,0.2047,0.207,0.213,0.214,0.2146,0.2234,0.2248,0.2244,0.2223,0.2281,0.2316,0.2331,0.2148,0.2147,0.2147,0.2146,0,0,0.1621,0.1691,0.1698,0.1724,0.1789,0.1808,0.1867,0.1927,0.1982,0.2033,0.2101,0.2144,0.2186,0.2208,0.2233,0.2281,0.2375,0.2307,0.2309,0.2334,0.2531,0.2379,0.238,0.2413,0.2416,0.2418,0.2522,0,0.1622,0.1662,0.1702,0.1746,0.1767,0.1834,0.188,0.1947,0.2012,0.2091,0.214,0.2216,0.2204,0.226,0.2305,0.2376,0.2421,0.2348,0.248,0.2483,0.2333,0.2394,0.2428,0.2533,0.2536,0.2538,0.254,0,0.1608,0.1641,0.1682,0.1753,0.1771,0.1815,0.1915,0.197,0.2088,0.2141,0.2231,0.2291,0.2386,0.2365,0.2496,0.2468,0.2507,0.2537,0.2542,0.2405,0.2359,0.2468,0.2567,0.2565,0.2563,0.2561,0.256,0,0.1555,0.1621,0.1659,0.168,0.1769,0.1821,0.1887,0.1997,0.2062,0.2207,0.2288,0.2386,0.248,0.2544,0.2612,0.2588,0.2748,0.2709,0.2598,0.2588,0.2683,0.2671,0.2795,0.2795,0.2795,0.2795,0.2794,0,0.1521,0.1547,0.1647,0.1666,0.173,0.1804,0.1899,0.1984,0.2116,0.2202,0.2332,0.2417,0.2546,0.2647,0.2666,0.2682,0.2794,0.2616,0.2611,0.2687,0.2675,0.2692,0.2679,0.2799,0.2798,0.2797,0.2796,0,0.1444,0.151,0.1557,0.1665,0.1711,0.176,0.191,0.1966,0.2122,0.225,0.2315,0.2495,0.2622,0.2713,0.2829,0.275,0.2772,0.2747,0.2832,0.2828,0.255,0.2537,0.2619,0.2615,0.2611,0.2608,0.2606,0,0.1404,0.1424,0.1548,0.1576,0.1634,0.1729,0.1792,0.1953,0.2024,0.2267,0.2317,0.252,0.2616,0.2658,0.2749,0.2776,0.2742,0.2728,0.2615,0.2548,0.2537,0.2529,0.2521,0.26,0.2599,0.2598,0.2597,0,0.1315,0.1376,0.1417,0.1484,0.1555,0.1619,0.1736,0.1784,0.1974,0.2156,0.2274,0.2354,0.2497,0.2565,0.2625,0.2627,0.2717,0.2689,0.2695,0.2588,0.2526,0.2516,0.2512,0.2584,0.2586,0.2587,0.2588,0,0.1252,0.125,0.1309,0.1353,0.1433,0.1459,0.1552,0.165,0.1757,0.2045,0.208,0.2287,0.2471,0.2491,0.2533,0.2541,0.2486,0.2384,0.2405,0.242,0.2305,0.2194,0.2158,0,0,0,0,0,0.1165,0.1129,0.1159,0.1194,0.1271,0.1317,0.1475,0.1575,0.1804,0.1837,0.1953,0.2071,0.2169,0.2276,0.2241,0.242,0.2474,0.2367,0.236,0.2514,0.2528,0.241,0,0,0,0,0,0,0.1094,0.1097,0.1097,0.1043,0.1047,0.1113,0.1208,0.1367,0.1411,0.1661,0.1735,0.1928,0.2059,0.2159,0.2192,0.2223,0.2172,0.2503,0.2498,0.2505,0.2519,0.253,0.2414,0,0,0,0,0]},{"header":{"parameterUnit":"m.s-1","parameterCategory":2,"la1":30.2991,"la2":30.254,"lo1":-89.0895,"lo2":-89.0444,"dy":0.0017,"dx":0.0017,"nx":28,"ny":28,"refTime":"2025-08-05T21:00:00:Z","depth":"4","parameterNumber":3,"parameterNumberName":"V-component_of_CURRENTS"},"data":[0,0,0,0,0,0,0,0,0,0,0,0,0,0,0,0,0,0,0,0,0,0,0,0,0,0,0,0,0,0,0,0,0,0,0,0,0,0,0,0,0,0,0,0,0,0,0,0,0,0,0,0,0,0,0,0,0,0,0.0003,0.0003,0,-0.0036,-0.0036,-0.0037,-0.0071,-0.0071,-0.0072,-0.0072,-0.0132,-0.0134,-0.0135,0,0,0,0,0,0,0,0,0,0,0,0,0,0.001,0.001,0.0003,0.0003,0.0002,-0.0036,-0.0036,-0.0037,-0.0071,-0.0071,-0.0072,-0.0072,-0.0132,-0.0133,-0.0135,0,0,0,0,0,0,0,0,0,0,0,0,0,-0.0009,0.001,0.0003,-0.0018,-0.0021,-0.0035,-0.0036,-0.0037,-0.0071,-0.0071,-0.0072,-0.0072,-0.0131,-0.0133,-0.0135,-0.014,0,0,-0.0142,-0.0142,0,0,0,0,0,0,0,0,-0.0008,-0.0009,-0.0015,-0.0017,-0.0019,-0.0048,-0.0056,-0.0072,-0.0071,-0.0053,-0.0072,-0.0072,-0.0105,-0.0109,-0.0117,-0.0142,-0.0145,-0.0142,-0.0143,-0.0144,-0.0144,0,0,0,0,0,0,0,-0.0006,-0.0008,-0.0014,-0.0015,-0.0018,-0.0039,-0.0042,-0.0059,-0.0078,-0.0055,-0.0057,-0.0059,-0.0107,-0.0115,-0.0119,-0.0146,-0.0142,-0.0143,-0.0145,-0.0145,-0.0184,-0.0183,0,0,0,0,0,0,0.0004,-0.0006,-0.0012,-0.0015,-0.0013,-0.0038,-0.0042,-0.0039,-0.0077,-0.0083,-0.0059,-0.0061,-0.0111,-0.0116,-0.0121,-0.0114,-0.0144,-0.0146,-0.0147,-0.0184,-0.0184,-0.0183,0,0,0,0,0,0,0.0004,0.0004,-0.0011,-0.0011,-0.0014,-0.0038,-0.0035,-0.004,-0.0047,-0.008,-0.0086,-0.006,-0.0112,-0.0118,-0.0132,-0.0118,-0.0147,-0.0148,-0.0184,-0.0184,-0.0183,-0.011,0,0,0,0,0,0,0.0005,0.0004,0.0009,-0.001,-0.0013,-0.0011,-0.0035,-0.004,-0.0047,-0.005,-0.0083,-0.0089,-0.0113,-0.0128,-0.0134,-0.0121,-0.015,-0.0184,-0.0184,-0.0184,-0.0112,-0.0107,-0.0102,0,0,0,0,0,0.0005,0.0019,0.0009,0.0009,-0.0006,-0.0011,-0.0014,-0.0034,-0.0046,-0.0044,-0.0067,-0.0088,-0.013,-0.0129,-0.0136,-0.0123,-0.0185,-0.0184,-0.0184,-0.0115,-0.0108,-0.0102,0,0,0,0,0,0,0.0025,0.0016,0.0005,0.0015,0.0005,-0.0016,-0.0014,-0.0029,-0.0046,-0.0049,-0.0083,-0.009,-0.01,-0.0123,-0.0122,-0.0135,-0.0162,-0.0163,-0.0107,-0.0101,-0.0096,-0.0079,-0.0152,0,0,0,0,0,0.0031,0.0037,0.0024,0.0031,0.003,0.0008,0.0003,-0.0009,-0.0026,-0.0034,-0.0057,-0.0083,-0.0103,-0.011,-0.0134,-0.0136,-0.0175,-0.0135,-0.013,-0.0125,-0.0116,-0.0166,-0.0165,-0.0182,-0.0182,-0.0182,0,0,0.0039,0.0036,0.0038,0.0035,0.0025,0.0036,0.0004,0.0003,0.0013,-0.0038,-0.0034,-0.0068,-0.0102,-0.0107,-0.0113,-0.0122,-0.0142,-0.0124,-0.012,-0.0114,-0.0166,-0.0164,-0.0163,-0.0182,-0.0182,-0.0182,0,0,0.0066,0.0058,0.0074,0.0074,0.0067,0.0057,0.006,0.0043,0.0037,0.0033,-0.0002,-0.0023,-0.0051,-0.007,-0.0083,-0.0065,-0.0118,-0.0078,-0.003,-0.0079,-0.0078,-0.0077,-0.0128,-0.0132,-0.007,-0.0069,-0.0069,0,0.0076,0.0097,0.0078,0.0097,0.0105,0.0072,0.0096,0.0087,0.0067,0.0065,0.0044,-0.0002,-0.0031,-0.0036,-0.003,-0.0051,-0.0093,-0.0047,-0.0071,-0.0071,-0.0072,-0.0125,-0.013,-0.0066,-0.0066,-0.0067,-0.0067,0,0.0117,0.0135,0.0146,0.0161,0.0165,0.018,0.0169,0.017,0.0153,0.0135,0.012,0.0075,0.0049,0.0034,0.001,-0.0004,-0.0039,-0.0062,-0.0082,-0.0066,-0.0122,-0.013,-0.0061,-0.0062,-0.0063,-0.0064,0,0,0.0139,0.017,0.0175,0.0197,0.0203,0.0213,0.0232,0.0237,0.0247,0.0215,0.0221,0.0181,0.0144,0.0125,0.0085,0.0047,0.0005,-0.0003,-0.0007,-0.0045,-0.0111,-0.0117,-0.0127,-0.0029,-0.0029,-0.003,-0.015,0,0.0178,0.0233,0.0236,0.0286,0.0313,0.0302,0.0328,0.0325,0.0303,0.0297,0.0247,0.023,0.0183,0.0168,0.0124,0.0031,-0.0011,0.0039,-0.0128,-0.0133,-0.0134,-0.0134,-0.0032,-0.0156,-0.0158,-0.0159,-0.016,0,0.0219,0.0252,0.0311,0.0359,0.0371,0.0396,0.0421,0.0441,0.0422,0.0401,0.0366,0.0314,0.0264,0.0217,0.0075,0.0105,0.0009,-0.0067,-0.0074,-0.0108,-0.0152,-0.0178,-0.0174,-0.0173,-0.0172,-0.0171,-0.017,0,0.0247,0.0305,0.0356,0.0372,0.0418,0.0446,0.0473,0.0472,0.0497,0.0463,0.0461,0.0377,0.0341,0.0214,0.0061,0.0061,-0.011,-0.0132,-0.0228,-0.023,-0.0221,-0.0221,-0.0232,-0.0231,-0.0231,-0.0231,-0.023,0,0.0287,0.0328,0.0376,0.0406,0.0475,0.0492,0.0549,0.0557,0.0572,0.06,0.0521,0.0507,0.0336,0.0221,0.0075,-0.0099,-0.0104,-0.0219,-0.0258,-0.0189,-0.0183,-0.0228,-0.0226,-0.0235,-0.0234,-0.0233,-0.0233,0,0.0306,0.0338,0.0403,0.0466,0.0491,0.0542,0.0617,0.0655,0.0659,0.0691,0.0688,0.0595,0.0439,0.0258,0.0038,-0.0072,-0.0244,-0.0306,-0.0219,-0.0253,-0.0338,-0.033,-0.0421,-0.0422,-0.0423,-0.0424,-0.0425,0,0.032,0.0354,0.0444,0.0492,0.0525,0.0599,0.0657,0.0695,0.0737,0.0742,0.0763,0.0634,0.0543,0.0241,0.0034,-0.0248,-0.0284,-0.0372,-0.0349,-0.0326,-0.0356,-0.0347,-0.0339,-0.0426,-0.0427,-0.0427,-0.0427,0,0.0342,0.0375,0.0431,0.0534,0.0605,0.0688,0.0771,0.0805,0.0851,0.0852,0.0822,0.0672,0.0494,0.0249,0.0026,-0.0174,-0.0313,-0.0382,-0.0382,-0.0361,-0.0334,-0.036,-0.0351,-0.0431,-0.043,-0.043,-0.043,0,0.0358,0.0402,0.0482,0.0572,0.0668,0.0759,0.0795,0.085,0.0893,0.0901,0.0879,0.0695,0.0585,0.0285,0.0079,-0.012,-0.0168,-0.0221,-0.0229,-0.0228,-0.0137,-0.0071,-0.0118,0,0,0,0,0,0.0376,0.0432,0.0515,0.0625,0.0722,0.0782,0.087,0.0898,0.093,0.0925,0.0912,0.0749,0.0455,0.0323,0.0123,0.0038,-0.0221,-0.0204,-0.029,-0.0449,-0.0445,-0.0371,0,0,0,0,0,0,0.0389,0.0469,0.0516,0.0651,0.0731,0.0846,0.0902,0.0925,0.0923,0.0921,0.0766,0.0706,0.0411,0.0573,0.0123,0.0061,-0.0019,-0.034,-0.0344,-0.0451,-0.0448,-0.0445,-0.0367,0,0,0,0,0]}]]